| time (UTC) | temp F | wind direction | speed MPH | gust MPH | rain 1hr in | rain 24hr in | rain mn in | humidity % | barometer mb |
| 20260831082327 | 73 | 216 | 0.0 | 0.0 | 0.00 | 0.00 | 0.00 | 88 | 1004.9 |
| 20260831081823 | 73 | 216 | 0.0 | 0.0 | 0.00 | 0.00 | 0.00 | 88 | 1004.8 |
| 20260831081325 | 73 | 216 | 0.0 | 0.0 | 0.00 | 0.00 | 0.00 | 88 | 1004.8 |
| 20260831080842 | 73 | 216 | 0.0 | 0.0 | 0.00 | 0.00 | 0.00 | 88 | 1004.7 |
| 20260831080357 | 73 | 216 | 0.0 | 0.0 | 0.00 | 0.00 | 0.00 | 88 | 1004.8 |
| 20260831075838 | 74 | 216 | 0.0 | 0.0 | 0.00 | 0.00 | 0.00 | 88 | 1004.9 |
| 20260831075324 | 74 | 216 | 0.0 | 0.0 | 0.00 | 0.00 | 0.00 | 87 | 1004.8 |
| 20260831074838 | 74 | 218 | 0.0 | 0.0 | 0.00 | 0.00 | 0.00 | 87 | 1004.8 |
| 20260831074321 | 74 | 218 | 0.0 | 0.0 | 0.00 | 0.00 | 0.00 | 87 | 1004.9 |
| 20260831073829 | 74 | 218 | 0.0 | 0.0 | 0.00 | 0.00 | 0.00 | 87 | 1004.9 |
| 20260831073324 | 74 | 218 | 0.0 | 0.0 | 0.00 | 0.00 | 0.00 | 88 | 1004.8 |
| 20260831072825 | 74 | 197 | 0.0 | 0.0 | 0.00 | 0.00 | 0.00 | 87 | 1004.8 |
| 20260831072341 | 74 | 194 | 0.0 | 0.0 | 0.00 | 0.00 | 0.00 | 87 | 1004.9 |
| 20260831071827 | 74 | 193 | 0.0 | 0.0 | 0.00 | 0.00 | 0.00 | 87 | 1004.9 |
| 20260831071320 | 74 | 182 | 0.0 | 0.0 | 0.00 | 0.00 | 0.00 | 87 | 1004.9 |
| 20260831070814 | 74 | 182 | 0.0 | 0.0 | 0.00 | 0.00 | 0.00 | 87 | 1004.9 |
| 20260831070326 | 74 | 175 | 0.0 | 0.0 | 0.00 | 0.00 | 0.00 | 87 | 1005.0 |
| 20260831065828 | 74 | 166 | 0.0 | 0.0 | 0.00 | 0.00 | 0.00 | 87 | 1005.0 |
| 20260831065314 | 74 | 181 | 0.0 | 0.0 | 0.00 | 0.00 | 0.00 | 87 | 1005.1 |
| 20260831064850 | 74 | 188 | 0.0 | 0.0 | 0.00 | 0.00 | 0.00 | 87 | 1005.1 |
| 20260831064330 | 74 | 195 | 0.0 | 0.0 | 0.00 | 0.00 | 0.00 | 87 | 1005.1 |
| 20260831063824 | 74 | 164 | 0.0 | 0.0 | 0.00 | 0.00 | 0.00 | 87 | 1005.1 |
| 20260831063330 | 75 | 191 | 0.0 | 0.0 | 0.00 | 0.00 | 0.00 | 87 | 1005.1 |
| 20260831062901 | 75 | 173 | 0.0 | 0.0 | 0.00 | 0.00 | 0.00 | 87 | 1005.3 |
| 20260831062346 | 75 | 202 | 0.0 | 0.0 | 0.00 | 0.00 | 0.00 | 87 | 1005.4 |
| 20260831061323 | 75 | 128 | 0.0 | 0.0 | 0.00 | 0.00 | 0.00 | 87 | 1005.5 |
| 20260831060836 | 75 | 198 | 0.0 | 0.0 | 0.00 | 0.00 | 0.00 | 87 | 1005.7 |
| 20260831060323 | 75 | 180 | 0.0 | 0.0 | 0.00 | 0.00 | 0.00 | 87 | 1005.5 |
| 20260831055825 | 75 | 173 | 0.0 | 0.0 | 0.00 | 0.00 | 0.00 | 86 | 1005.4 |
| 20260831055321 | 75 | 182 | 0.0 | 0.0 | 0.00 | 0.00 | 0.00 | 86 | 1005.5 |
| 20260831054826 | 75 | 191 | 0.0 | 0.0 | 0.00 | 0.00 | 0.00 | 86 | 1005.4 |
| 20260831054316 | 75 | 187 | 0.0 | 0.0 | 0.00 | 0.00 | 0.00 | 86 | 1005.3 |
| 20260831053830 | 75 | 187 | 0.0 | 0.0 | 0.00 | 0.00 | 0.00 | 86 | 1005.4 |
| 20260831053323 | 75 | 146 | 0.0 | 0.0 | 0.00 | 0.00 | 0.00 | 86 | 1005.5 |
| 20260831052826 | 75 | 142 | 0.0 | 0.0 | 0.00 | 0.00 | 0.00 | 85 | 1005.7 |
| 20260831052340 | 75 | 193 | 0.0 | 0.0 | 0.00 | 0.00 | 0.00 | 85 | 1005.7 |
| 20260831051824 | 75 | 206 | 0.0 | 0.0 | 0.00 | 0.00 | 0.00 | 85 | 1005.8 |
| 20260831051347 | 75 | 182 | 0.0 | 0.0 | 0.00 | 0.00 | 0.00 | 85 | 1005.8 |
| 20260831050832 | 76 | 146 | 0.0 | 0.0 | 0.00 | 0.00 | 0.00 | 85 | 1005.8 |
| 20260831050328 | 76 | 213 | 0.0 | 0.0 | 0.00 | 0.00 | 0.00 | 84 | 1006.0 |
| 20260831045823 | 76 | 190 | 0.0 | 0.0 | 0.00 | 0.00 | 0.00 | 84 | 1006.1 |
| 20260831045339 | 76 | 151 | 0.0 | 0.0 | 0.00 | 0.00 | 0.00 | 84 | 1006.2 |
| 20260831044826 | 76 | 195 | 0.0 | 0.0 | 0.00 | 0.00 | 0.00 | 84 | 1006.3 |
| 20260831044326 | 76 | 196 | 0.0 | 0.0 | 0.00 | 0.00 | 0.00 | 83 | 1006.4 |
| 20260831043821 | 76 | 190 | 0.0 | 0.0 | 0.00 | 0.00 | 0.00 | 83 | 1006.4 |
| 20260831043337 | 76 | 211 | 0.0 | 0.0 | 0.00 | 0.00 | 0.00 | 83 | 1006.4 |
| 20260831042834 | 76 | 215 | 0.0 | 0.0 | 0.00 | 0.00 | 0.00 | 83 | 1006.5 |
| 20260831042322 | 76 | 202 | 0.0 | 0.0 | 0.00 | 0.00 | 0.00 | 83 | 1006.6 |
| 20260831041817 | 77 | 205 | 0.0 | 0.0 | 0.00 | 0.00 | 0.00 | 83 | 1006.6 |
| 20260831041340 | 77 | 198 | 0.0 | 0.0 | 0.00 | 0.00 | 0.00 | 82 | 1006.5 |
| 20260831040835 | 77 | 192 | 0.0 | 0.0 | 0.00 | 0.00 | 0.00 | 82 | 1006.5 |
| 20260831040322 | 77 | 235 | 0.0 | 0.0 | 0.00 | 0.00 | 0.00 | 82 | 1006.4 |
| 20260831035833 | 77 | 205 | 0.0 | 0.0 | 0.00 | 0.00 | 0.00 | 82 | 1006.4 |
| 20260831035319 | 77 | 201 | 0.0 | 0.0 | 0.00 | 0.00 | 0.00 | 82 | 1006.4 |
| 20260831034832 | 77 | 196 | 0.0 | 0.0 | 0.00 | 0.00 | 0.00 | 81 | 1006.4 |
| 20260831034334 | 77 | 150 | 0.0 | 0.0 | 0.00 | 0.00 | 0.00 | 81 | 1006.4 |
| 20260831033821 | 77 | 200 | 0.0 | 0.0 | 0.00 | 0.00 | 0.00 | 81 | 1006.4 |
| 20260831033318 | 77 | 220 | 0.0 | 0.0 | 0.00 | 0.00 | 0.00 | 81 | 1006.4 |
| 20260831032820 | 78 | 213 | 0.0 | 0.0 | 0.00 | 0.00 | 0.00 | 81 | 1006.4 |
| 20260831032328 | 78 | 202 | 0.0 | 1.0 | 0.00 | 0.00 | 0.00 | 81 | 1006.3 |
| 20260831031846 | 78 | 202 | 0.0 | 1.0 | 0.00 | 0.00 | 0.00 | 80 | 1006.3 |
| 20260831031320 | 78 | 192 | 0.0 | 1.0 | 0.00 | 0.00 | 0.00 | 80 | 1006.3 |
| 20260831030835 | 78 | 229 | 0.0 | 1.0 | 0.00 | 0.00 | 0.00 | 80 | 1006.2 |
| 20260831030326 | 78 | 252 | 0.0 | 0.0 | 0.00 | 0.00 | 0.00 | 80 | 1006.2 |
| 20260831025826 | 77 | 163 | 0.0 | 0.0 | 0.00 | 0.00 | 0.00 | 80 | 1006.2 |
| 20260831025323 | 77 | 202 | 0.0 | 0.0 | 0.00 | 0.00 | 0.00 | 81 | 1006.1 |
| 20260831024829 | 77 | 196 | 0.0 | 1.0 | 0.00 | 0.00 | 0.00 | 81 | 1006.0 |
| 20260831024337 | 77 | 203 | 0.0 | 0.0 | 0.00 | 0.00 | 0.00 | 82 | 1006.0 |
| 20260831023824 | 77 | 190 | 0.0 | 0.0 | 0.00 | 0.00 | 0.00 | 84 | 1005.9 |
| 20260831023339 | 77 | 213 | 0.0 | 0.0 | 0.00 | 0.00 | 0.00 | 85 | 1006.0 |
| 20260831022821 | 77 | 228 | 0.0 | 0.0 | 0.00 | 0.00 | 0.00 | 85 | 1006.1 |
| 20260831022328 | 77 | 219 | 0.0 | 0.0 | 0.00 | 0.00 | 0.00 | 85 | 1006.1 |
| 20260831021824 | 77 | 118 | 0.0 | 0.0 | 0.00 | 0.00 | 0.00 | 85 | 1006.1 |
| 20260831021326 | 77 | 118 | 0.0 | 0.0 | 0.00 | 0.00 | 0.00 | 85 | 1006.1 |
| 20260831020842 | 78 | 117 | 0.0 | 0.0 | 0.00 | 0.00 | 0.00 | 84 | 1006.0 |
| 20260831020328 | 78 | 117 | 0.0 | 0.0 | 0.00 | 0.00 | 0.00 | 84 | 1005.9 |
| 20260831015829 | 78 | 115 | 327.0 | 327.0 | 0.00 | 0.00 | 0.00 | 84 | 1005.4 |
| 20260831015324 | 78 | 105 | 0.0 | 0.0 | 0.00 | 0.00 | 0.00 | 83 | 1005.9 |
| 20260831014831 | 78 | 144 | 0.0 | 0.0 | 0.00 | 0.00 | 0.00 | 83 | 1005.9 |
| 20260831014359 | 78 | 88 | 0.0 | 0.0 | 0.00 | 0.00 | 0.00 | 83 | 1005.9 |
| 20260831013826 | 79 | 126 | 0.0 | 0.0 | 0.00 | 0.00 | 0.00 | 83 | 1005.9 |
| 20260831013341 | 79 | 127 | 0.0 | 0.0 | 0.00 | 0.00 | 0.00 | 82 | 1005.8 |
| 20260831012823 | 79 | 101 | 0.0 | 0.0 | 0.00 | 0.00 | 0.00 | 82 | 1005.8 |
| 20260831012339 | 79 | 107 | 0.0 | 0.0 | 0.00 | 0.00 | 0.00 | 82 | 1005.8 |
| 20260831011826 | 79 | 110 | 0.0 | 0.0 | 0.00 | 0.00 | 0.00 | 81 | 1005.8 |
| 20260831011326 | 79 | 105 | 0.0 | 0.0 | 0.00 | 0.00 | 0.00 | 81 | 1005.8 |
| 20260831010843 | 79 | 92 | 0.0 | 0.0 | 0.00 | 0.00 | 0.00 | 81 | 1005.7 |
| 20260831010327 | 80 | 88 | 0.0 | 0.0 | 0.00 | 0.00 | 0.00 | 80 | 1005.6 |
| 20260831005822 | 80 | 119 | 0.0 | 0.0 | 0.00 | 0.00 | 0.00 | 80 | 1005.6 |
| 20260831005337 | 80 | 129 | 0.0 | 0.0 | 0.00 | 0.00 | 0.00 | 80 | 1005.7 |
| 20260831004832 | 80 | 109 | 0.0 | 0.0 | 0.00 | 0.00 | 0.00 | 79 | 1005.7 |
| 20260831004314 | 80 | 113 | 0.0 | 1.0 | 0.00 | 0.00 | 0.00 | 79 | 1005.5 |
| 20260831003822 | 81 | 98 | 0.0 | 1.0 | 0.00 | 0.00 | 0.00 | 79 | 1005.6 |
| 20260831003337 | 81 | 113 | 0.0 | 2.0 | 0.00 | 0.00 | 0.00 | 78 | 1005.6 |
| 20260831002817 | 81 | 109 | 0.0 | 1.0 | 0.00 | 0.00 | 0.00 | 78 | 1005.6 |
| 20260831002333 | 81 | 111 | 0.0 | 1.0 | 0.00 | 0.00 | 0.00 | 78 | 1005.7 |
| 20260831001845 | 81 | 88 | 0.0 | 1.0 | 0.00 | 0.00 | 0.00 | 78 | 1005.7 |
| 20260831001326 | 81 | 126 | 0.0 | 0.0 | 0.00 | 0.00 | 0.00 | 78 | 1005.7 |
| 20260831000843 | 82 | 116 | 0.0 | 1.0 | 0.00 | 0.00 | 0.00 | 77 | 1005.6 |
| 20260831000325 | 82 | 119 | 0.0 | 1.0 | 0.00 | 0.00 | 0.00 | 77 | 1005.7 |
| 20260830235826 | 82 | 113 | 0.0 | 1.0 | 0.00 | 0.00 | 0.00 | 77 | 1005.6 |
| 20260830235341 | 82 | 141 | 0.0 | 1.0 | 0.00 | 0.00 | 0.00 | 77 | 1005.6 |
| 20260830234827 | 82 | 78 | 0.0 | 2.0 | 0.00 | 0.00 | 0.00 | 76 | 1005.5 |
| 20260830234328 | 82 | 78 | 0.0 | 2.0 | 0.00 | 0.00 | 0.00 | 76 | 1005.5 |
| 20260830233824 | 82 | 104 | 0.0 | 2.0 | 0.00 | 0.00 | 0.00 | 75 | 1005.5 |
| 20260830233329 | 83 | 123 | 0.0 | 2.0 | 0.00 | 0.00 | 0.00 | 76 | 1005.5 |
| 20260830232859 | 83 | 61 | 0.0 | 1.0 | 0.00 | 0.00 | 0.00 | 75 | 1005.7 |
| 20260830232324 | 83 | 117 | 0.0 | 2.0 | 0.00 | 0.00 | 0.00 | 75 | 1005.8 |
| 20260830231819 | 83 | 101 | 0.0 | 2.0 | 0.00 | 0.00 | 0.00 | 75 | 1005.6 |
| 20260830231323 | 83 | 151 | 0.0 | 2.0 | 0.00 | 0.00 | 0.00 | 75 | 1005.7 |
| 20260830230829 | 83 | 129 | 0.0 | 2.0 | 0.00 | 0.00 | 0.00 | 75 | 1005.6 |
| 20260830230323 | 83 | 138 | 0.0 | 1.0 | 0.00 | 0.00 | 0.00 | 75 | 1005.6 |
| 20260830225826 | 83 | 84 | 0.0 | 4.0 | 0.00 | 0.00 | 0.00 | 74 | 1005.8 |
| 20260830225343 | 83 | 113 | 0.0 | 4.0 | 0.00 | 0.00 | 0.00 | 75 | 1005.7 |
| 20260830224845 | 83 | 140 | 0.0 | 1.0 | 0.00 | 0.00 | 0.00 | 75 | 1005.5 |
| 20260830224325 | 83 | 163 | 0.0 | 2.0 | 0.00 | 0.00 | 0.00 | 75 | 1005.5 |
| 20260830223831 | 83 | 93 | 0.0 | 2.0 | 0.00 | 0.00 | 0.00 | 75 | 1005.5 |
| 20260830223325 | 83 | 155 | 0.0 | 0.0 | 0.00 | 0.00 | 0.00 | 76 | 1005.6 |
| 20260830222826 | 83 | 105 | 0.0 | 2.0 | 0.00 | 0.00 | 0.00 | 76 | 1005.7 |
| 20260830222341 | 83 | 102 | 0.0 | 2.0 | 0.00 | 0.00 | 0.00 | 75 | 1005.6 |
| 20260830221855 | 83 | 144 | 0.0 | 1.0 | 0.00 | 0.00 | 0.00 | 75 | 1005.7 |
| 20260830221335 | 83 | 114 | 0.0 | 1.0 | 0.00 | 0.00 | 0.00 | 75 | 1005.7 |
| 20260830220821 | 83 | 93 | 0.0 | 1.0 | 0.00 | 0.00 | 0.00 | 75 | 1005.8 |
| 20260830220337 | 83 | 132 | 0.0 | 2.0 | 0.00 | 0.00 | 0.00 | 75 | 1005.9 |
| 20260830215816 | 83 | 98 | 0.0 | 2.0 | 0.00 | 0.00 | 0.00 | 76 | 1005.9 |
| 20260830215351 | 83 | 146 | 0.0 | 4.0 | 0.00 | 0.00 | 0.00 | 75 | 1005.9 |
| 20260830214841 | 83 | 91 | 0.0 | 4.0 | 0.00 | 0.00 | 0.00 | 74 | 1005.9 |
| 20260830214319 | 83 | 113 | 327.0 | 327.0 | 0.00 | 0.00 | 0.00 | 75 | 1005.6 |
| 20260830213837 | 83 | 108 | 0.0 | 2.0 | 0.00 | 0.00 | 0.00 | 74 | 1006.1 |
| 20260830213325 | 83 | 108 | 327.0 | 327.0 | 0.00 | 0.00 | 0.00 | 74 | 1005.7 |
| 20260830212858 | 83 | 134 | 0.0 | 2.0 | 0.00 | 0.00 | 0.00 | 75 | 1006.1 |
| 20260830212322 | 83 | 130 | 0.0 | 2.0 | 0.00 | 0.00 | 0.00 | 76 | 1006.1 |
| 20260830211817 | 82 | 66 | 0.0 | 2.0 | 0.00 | 0.00 | 0.00 | 76 | 1006.2 |
| 20260830211319 | 82 | 117 | 0.0 | 4.0 | 0.00 | 0.00 | 0.00 | 77 | 1006.2 |
| 20260830210833 | 82 | 173 | 1.0 | 4.0 | 0.00 | 0.00 | 0.00 | 77 | 1006.3 |
| 20260830210320 | 82 | 117 | 0.0 | 1.0 | 0.00 | 0.00 | 0.00 | 76 | 1006.5 |
| 20260830205824 | 82 | 107 | 0.0 | 2.0 | 0.00 | 0.00 | 0.00 | 75 | 1006.5 |
| 20260830205339 | 82 | 121 | 0.0 | 2.0 | 0.00 | 0.00 | 0.00 | 76 | 1006.5 |
| 20260830204826 | 82 | 72 | 0.0 | 1.0 | 0.00 | 0.00 | 0.00 | 75 | 1006.5 |
| 20260830204328 | 82 | 100 | 0.0 | 1.0 | 0.00 | 0.00 | 0.00 | 75 | 1006.5 |
| 20260830203823 | 82 | 99 | 0.0 | 1.0 | 0.00 | 0.00 | 0.00 | 77 | 1006.4 |
| 20260830203327 | 81 | 107 | 0.0 | 1.0 | 0.00 | 0.00 | 0.00 | 77 | 1006.4 |
| 20260830202845 | 81 | 130 | 0.0 | 4.0 | 0.00 | 0.00 | 0.00 | 78 | 1006.4 |
| 20260830202339 | 80 | 116 | 0.0 | 5.0 | 0.00 | 0.00 | 0.00 | 77 | 1006.4 |
| 20260830201821 | 80 | 67 | 0.0 | 5.0 | 0.00 | 0.00 | 0.00 | 78 | 1006.3 |
| 20260830201315 | 80 | 98 | 0.0 | 4.0 | 0.00 | 0.00 | 0.00 | 78 | 1006.2 |
| 20260830200850 | 80 | 53 | 0.0 | 4.0 | 0.00 | 0.00 | 0.00 | 79 | 1006.2 |
| 20260830200325 | 80 | 119 | 0.0 | 4.0 | 0.00 | 0.00 | 0.00 | 79 | 1006.2 |
| 20260830195839 | 79 | 124 | 0.0 | 4.0 | 0.00 | 0.00 | 0.00 | 79 | 1006.3 |
| 20260830195316 | 79 | 126 | 0.0 | 4.0 | 0.00 | 0.00 | 0.00 | 80 | 1006.4 |
| 20260830194832 | 79 | 89 | 0.0 | 5.0 | 0.00 | 0.00 | 0.00 | 79 | 1006.2 |
| 20260830194334 | 79 | 46 | 0.0 | 4.0 | 0.00 | 0.00 | 0.00 | 80 | 1006.4 |
| 20260830193821 | 79 | 105 | 0.0 | 4.0 | 0.00 | 0.00 | 0.00 | 79 | 1006.8 |
| 20260830193337 | 79 | 130 | 0.0 | 2.0 | 0.00 | 0.00 | 0.00 | 80 | 1006.9 |
| 20260830192837 | 79 | 90 | 0.0 | 2.0 | 0.00 | 0.00 | 0.00 | 81 | 1007.1 |
| 20260830192324 | 78 | 98 | 0.0 | 2.0 | 0.00 | 0.00 | 0.00 | 81 | 1007.1 |
| 20260830191840 | 78 | 105 | 0.0 | 6.0 | 0.00 | 0.00 | 0.00 | 81 | 1007.0 |
| 20260830191322 | 78 | 94 | 0.0 | 2.0 | 0.00 | 0.00 | 0.00 | 82 | 1007.1 |
| 20260830190834 | 78 | 114 | 0.0 | 1.0 | 0.00 | 0.00 | 0.00 | 82 | 1007.3 |
| 20260830190322 | 78 | 95 | 0.0 | 2.0 | 0.00 | 0.00 | 0.00 | 83 | 1007.3 |
| 20260830185823 | 77 | 48 | 0.0 | 2.0 | 0.00 | 0.00 | 0.00 | 83 | 1007.4 |
| 20260830185320 | 77 | 99 | 0.0 | 0.0 | 0.00 | 0.00 | 0.00 | 84 | 1007.6 |
| 20260830184820 | 76 | 65 | 0.0 | 0.0 | 0.00 | 0.00 | 0.00 | 84 | 1007.6 |
| 20260830184323 | 76 | 25 | 0.0 | 0.0 | 0.00 | 0.00 | 0.00 | 84 | 1007.6 |
| 20260830183819 | 76 | 106 | 0.0 | 0.0 | 0.00 | 0.00 | 0.00 | 84 | 1007.8 |
| 20260830183334 | 76 | 134 | 0.0 | 0.0 | 0.00 | 0.00 | 0.00 | 85 | 1007.9 |
| 20260830182833 | 76 | 105 | 0.0 | 0.0 | 0.00 | 0.00 | 0.00 | 85 | 1007.8 |
| 20260830182318 | 75 | 117 | 0.0 | 0.0 | 0.00 | 0.00 | 0.00 | 85 | 1007.9 |
| 20260830181834 | 75 | 83 | 0.0 | 1.0 | 0.00 | 0.00 | 0.00 | 85 | 1007.8 |
| 20260830181336 | 75 | 126 | 0.0 | 1.0 | 0.00 | 0.00 | 0.00 | 85 | 1007.8 |
| 20260830180851 | 75 | 69 | 0.0 | 0.0 | 0.00 | 0.00 | 0.00 | 86 | 1007.7 |
| 20260830180316 | 75 | 90 | 0.0 | 1.0 | 0.00 | 0.00 | 0.00 | 86 | 1007.8 |
| 20260830175836 | 74 | 123 | 0.0 | 0.0 | 0.00 | 0.00 | 0.00 | 86 | 1007.8 |
| 20260830175341 | 74 | 61 | 0.0 | 0.0 | 0.00 | 0.00 | 0.00 | 86 | 1007.9 |
| 20260830174826 | 74 | 111 | 0.0 | 0.0 | 0.00 | 0.00 | 0.00 | 86 | 1007.8 |
| 20260830174322 | 74 | 142 | 0.0 | 0.0 | 0.00 | 0.00 | 0.00 | 86 | 1007.8 |
| 20260830173837 | 74 | 141 | 0.0 | 1.0 | 0.00 | 0.00 | 0.00 | 86 | 1007.9 |
| 20260830173323 | 74 | 113 | 0.0 | 1.0 | 0.00 | 0.00 | 0.00 | 86 | 1008.0 |
| 20260830172825 | 74 | 98 | 0.0 | 0.0 | 0.00 | 0.00 | 0.00 | 86 | 1008.0 |
| 20260830172320 | 74 | 111 | 0.0 | 1.0 | 0.00 | 0.00 | 0.00 | 86 | 1008.0 |
| 20260830171835 | 74 | 69 | 0.0 | 1.0 | 0.00 | 0.00 | 0.00 | 86 | 1007.9 |
| 20260830171337 | 74 | 108 | 0.0 | 0.0 | 0.00 | 0.00 | 0.00 | 86 | 1007.9 |
| 20260830170826 | 73 | 89 | 0.0 | 0.0 | 0.00 | 0.00 | 0.00 | 86 | 1007.9 |
| 20260830170313 | 73 | 61 | 0.0 | 2.0 | 0.00 | 0.00 | 0.00 | 86 | 1007.9 |
| 20260830165815 | 73 | 102 | 0.0 | 2.0 | 0.00 | 0.00 | 0.00 | 86 | 1008.0 |
| 20260830165401 | 73 | 38 | 0.0 | 2.0 | 0.00 | 0.00 | 0.00 | 86 | 1007.7 |
| 20260830164846 | 73 | 71 | 0.0 | 1.0 | 0.00 | 0.00 | 0.00 | 86 | 1007.6 |
| 20260830164324 | 73 | 58 | 0.0 | 1.0 | 0.00 | 0.00 | 0.00 | 86 | 1007.5 |
| 20260830163820 | 73 | 141 | 0.0 | 1.0 | 0.00 | 0.00 | 0.00 | 86 | 1007.6 |
| 20260830163336 | 73 | 87 | 0.0 | 1.0 | 0.00 | 0.00 | 0.00 | 87 | 1007.5 |
| 20260830162816 | 73 | 44 | 0.0 | 2.0 | 0.00 | 0.00 | 0.00 | 87 | 1007.5 |
| 20260830162319 | 72 | 48 | 0.0 | 2.0 | 0.00 | 0.00 | 0.00 | 87 | 1007.6 |
| 20260830161829 | 72 | 61 | 0.0 | 1.0 | 0.00 | 0.00 | 0.00 | 87 | 1007.5 |
| 20260830161330 | 72 | 103 | 0.0 | 1.0 | 0.00 | 0.00 | 0.00 | 87 | 1007.5 |
| 20260830160825 | 72 | 17 | 0.0 | 1.0 | 0.00 | 0.00 | 0.00 | 87 | 1007.5 |
| 20260830160330 | 72 | 59 | 0.0 | 7.0 | 0.00 | 0.00 | 0.00 | 87 | 1007.7 |
| 20260830155813 | 72 | 102 | 1.0 | 7.0 | 0.00 | 0.00 | 0.00 | 87 | 1007.6 |
| 20260830155327 | 72 | 53 | 0.0 | 4.0 | 0.00 | 0.00 | 0.00 | 87 | 1007.5 |
| 20260830154903 | 72 | 124 | 0.0 | 2.0 | 0.00 | 0.00 | 0.00 | 87 | 1007.6 |
| 20260830154324 | 72 | 37 | 0.0 | 7.0 | 0.00 | 0.00 | 0.00 | 87 | 1007.7 |
| 20260830153833 | 72 | 42 | 0.0 | 7.0 | 0.00 | 0.00 | 0.00 | 87 | 1007.6 |
| 20260830153348 | 72 | 49 | 0.0 | 1.0 | 0.00 | 0.00 | 0.00 | 87 | 1007.9 |
| 20260830152823 | 71 | 85 | 0.0 | 2.0 | 0.00 | 0.00 | 0.00 | 88 | 1007.8 |
| 20260830152319 | 71 | 64 | 0.0 | 2.0 | 0.00 | 0.00 | 0.00 | 88 | 1007.7 |
| 20260830151837 | 71 | 58 | 0.0 | 5.0 | 0.00 | 0.00 | 0.00 | 88 | 1007.6 |
| 20260830151337 | 71 | 68 | 0.0 | 5.0 | 0.00 | 0.00 | 0.00 | 88 | 1007.5 |
| 20260830150818 | 71 | 78 | 0.0 | 5.0 | 0.00 | 0.00 | 0.00 | 88 | 1007.4 |
| 20260830150314 | 70 | 86 | 0.0 | 2.0 | 0.00 | 0.00 | 0.00 | 88 | 1007.5 |
| 20260830145832 | 70 | 103 | 0.0 | 1.0 | 0.00 | 0.00 | 0.00 | 88 | 1007.6 |
| 20260830145317 | 70 | 87 | 0.0 | 0.0 | 0.00 | 0.00 | 0.00 | 88 | 1007.7 |
| 20260830144832 | 70 | 69 | 0.0 | 0.0 | 0.00 | 0.00 | 0.00 | 88 | 1007.7 |
| 20260830144314 | 70 | 64 | 0.0 | 0.0 | 0.00 | 0.00 | 0.00 | 88 | 1007.6 |
| 20260830143850 | 69 | 144 | 0.0 | 1.0 | 0.00 | 0.00 | 0.00 | 88 | 1007.7 |
| 20260830143324 | 69 | 97 | 0.0 | 1.0 | 0.00 | 0.00 | 0.00 | 88 | 1007.8 |
| 20260830142825 | 69 | 96 | 0.0 | 1.0 | 0.00 | 0.00 | 0.00 | 88 | 1007.8 |
| 20260830142338 | 69 | 86 | 0.0 | 0.0 | 0.00 | 0.00 | 0.00 | 88 | 1007.9 |
| 20260830141825 | 69 | 107 | 0.0 | 0.0 | 0.00 | 0.00 | 0.00 | 88 | 1007.9 |
| 20260830141328 | 68 | 83 | 0.0 | 0.0 | 0.00 | 0.00 | 0.00 | 88 | 1007.8 |
| 20260830140903 | 68 | 134 | 0.0 | 2.0 | 0.00 | 0.00 | 0.00 | 88 | 1007.8 |
| 20260830140331 | 68 | 123 | 0.0 | 2.0 | 0.00 | 0.00 | 0.00 | 88 | 1007.8 |
| 20260830135813 | 68 | 67 | 0.0 | 1.0 | 0.00 | 0.00 | 0.00 | 88 | 1007.6 |
| 20260830135321 | 68 | 88 | 0.0 | 1.0 | 0.00 | 0.00 | 0.00 | 88 | 1007.6 |
| 20260830134817 | 68 | 71 | 0.0 | 1.0 | 0.00 | 0.00 | 0.00 | 88 | 1007.8 |
| 20260830134338 | 68 | 55 | 0.0 | 1.0 | 0.00 | 0.00 | 0.00 | 88 | 1007.7 |
| 20260830133833 | 68 | 96 | 0.0 | 0.0 | 0.00 | 0.00 | 0.00 | 88 | 1007.6 |
| 20260830133347 | 67 | 109 | 0.0 | 1.0 | 0.00 | 0.00 | 0.00 | 88 | 1007.5 |
| 20260830132822 | 67 | 105 | 0.0 | 1.0 | 0.00 | 0.00 | 0.00 | 88 | 1007.7 |
| 20260830132337 | 67 | 113 | 0.0 | 2.0 | 0.00 | 0.00 | 0.00 | 88 | 1007.8 |
| 20260830131825 | 67 | 5 | 0.0 | 2.0 | 0.00 | 0.00 | 0.00 | 88 | 1007.5 |
| 20260830131321 | 67 | 88 | 0.0 | 1.0 | 0.00 | 0.02 | 0.00 | 88 | 1007.7 |
| 20260830130816 | 67 | 61 | 0.0 | 0.0 | 0.00 | 0.02 | 0.00 | 88 | 1007.8 |
| 20260830130331 | 67 | 23 | 0.0 | 2.0 | 0.00 | 0.02 | 0.00 | 88 | 1007.8 |
| 20260830125833 | 67 | 42 | 0.0 | 5.0 | 0.00 | 0.02 | 0.00 | 88 | 1007.7 |
| 20260830125348 | 67 | 43 | 0.0 | 1.0 | 0.00 | 0.02 | 0.00 | 88 | 1007.7 |
| 20260830124841 | 67 | 85 | 0.0 | 1.0 | 0.00 | 0.02 | 0.00 | 88 | 1007.7 |
| 20260830124325 | 67 | 35 | 0.0 | 0.0 | 0.00 | 0.02 | 0.00 | 88 | 1007.6 |
| 20260830123828 | 67 | 109 | 0.0 | 0.0 | 0.00 | 0.02 | 0.00 | 88 | 1007.5 |
| 20260830123322 | 67 | 110 | 0.0 | 0.0 | 0.00 | 0.02 | 0.00 | 88 | 1007.6 |
| 20260830122825 | 67 | 78 | 0.0 | 0.0 | 0.00 | 0.02 | 0.00 | 88 | 1007.4 |
| 20260830122329 | 67 | 84 | 0.0 | 0.0 | 0.00 | 0.02 | 0.00 | 88 | 1007.7 |
| 20260830121845 | 67 | 81 | 0.0 | 0.0 | 0.00 | 0.02 | 0.00 | 88 | 1007.9 |
| 20260830121324 | 67 | 79 | 0.0 | 0.0 | 0.00 | 0.11 | 0.00 | 88 | 1007.9 |
| 20260830120840 | 67 | 74 | 0.0 | 0.0 | 0.00 | 0.11 | 0.00 | 88 | 1007.7 |
| 20260830120335 | 67 | 105 | 0.0 | 0.0 | 0.00 | 0.11 | 0.00 | 88 | 1007.5 |
| 20260830115815 | 67 | 63 | 0.0 | 2.0 | 0.00 | 0.11 | 0.00 | 88 | 1007.1 |
| 20260830115332 | 67 | 92 | 0.0 | 2.0 | 0.00 | 0.11 | 0.00 | 88 | 1007.0 |
| 20260830114833 | 67 | 87 | 0.0 | 0.0 | 0.00 | 0.11 | 0.00 | 88 | 1007.0 |
| 20260830114315 | 67 | 53 | 0.0 | 0.0 | 0.00 | 0.11 | 0.00 | 88 | 1007.1 |
| 20260830113830 | 67 | 92 | 0.0 | 0.0 | 0.00 | 0.11 | 0.00 | 88 | 1007.1 |
| 20260830113317 | 67 | 96 | 0.0 | 0.0 | 0.00 | 0.11 | 0.00 | 88 | 1007.0 |
| 20260830112825 | 67 | 87 | 0.0 | 0.0 | 0.00 | 0.11 | 0.00 | 88 | 1007.1 |
| 20260830112327 | 67 | 93 | 0.0 | 0.0 | 0.00 | 0.11 | 0.00 | 88 | 1007.2 |
| 20260830111844 | 67 | 108 | 0.0 | 0.0 | 0.00 | 0.11 | 0.00 | 88 | 1007.4 |
| 20260830111346 | 67 | 107 | 0.0 | 0.0 | 0.00 | 0.17 | 0.00 | 88 | 1007.4 |
| 20260830110900 | 67 | 107 | 0.0 | 0.0 | 0.00 | 0.17 | 0.00 | 88 | 1007.5 |
| 20260830110326 | 67 | 111 | 0.0 | 0.0 | 0.00 | 0.17 | 0.00 | 88 | 1007.4 |
| 20260830105828 | 67 | 115 | 0.0 | 0.0 | 0.00 | 0.17 | 0.00 | 88 | 1007.4 |
| 20260830105344 | 67 | 116 | 0.0 | 0.0 | 0.00 | 0.17 | 0.00 | 88 | 1007.5 |
| 20260830104841 | 67 | 119 | 0.0 | 0.0 | 0.00 | 0.17 | 0.00 | 88 | 1007.5 |
| 20260830104342 | 67 | 119 | 0.0 | 0.0 | 0.00 | 0.17 | 0.00 | 88 | 1007.4 |
| 20260830103827 | 67 | 124 | 0.0 | 0.0 | 0.00 | 0.17 | 0.00 | 88 | 1007.4 |
| 20260830103323 | 67 | 121 | 0.0 | 0.0 | 0.00 | 0.17 | 0.00 | 88 | 1007.4 |
| 20260830102824 | 67 | 121 | 0.0 | 0.0 | 0.00 | 0.17 | 0.00 | 88 | 1007.4 |
| 20260830102340 | 67 | 105 | 0.0 | 0.0 | 0.00 | 0.17 | 0.00 | 88 | 1007.5 |
| 20260830101828 | 67 | 103 | 0.0 | 0.0 | 0.00 | 0.17 | 0.00 | 88 | 1007.4 |
| 20260830101319 | 67 | 108 | 0.0 | 0.0 | 0.00 | 0.18 | 0.00 | 88 | 1007.4 |
| 20260830100816 | 67 | 107 | 0.0 | 0.0 | 0.00 | 0.18 | 0.00 | 88 | 1007.4 |
| 20260830100322 | 67 | 109 | 0.0 | 0.0 | 0.00 | 0.18 | 0.00 | 88 | 1007.4 |
| 20260830095824 | 67 | 109 | 0.0 | 0.0 | 0.00 | 0.18 | 0.00 | 88 | 1007.5 |
| 20260830095330 | 67 | 110 | 0.0 | 0.0 | 0.00 | 0.18 | 0.00 | 88 | 1007.4 |
| 20260830094846 | 67 | 109 | 0.0 | 0.0 | 0.00 | 0.18 | 0.00 | 88 | 1007.3 |
| 20260830094320 | 67 | 103 | 0.0 | 0.0 | 0.00 | 0.18 | 0.00 | 88 | 1007.1 |
| 20260830093816 | 67 | 88 | 0.0 | 0.0 | 0.00 | 0.18 | 0.00 | 88 | 1007.0 |
| 20260830093329 | 67 | 97 | 0.0 | 0.0 | 0.00 | 0.18 | 0.00 | 88 | 1007.0 |
| 20260830092830 | 67 | 118 | 0.0 | 0.0 | 0.00 | 0.18 | 0.00 | 88 | 1006.9 |
| 20260830092318 | 67 | 114 | 0.0 | 0.0 | 0.00 | 0.18 | 0.00 | 88 | 1007.0 |
| 20260830091853 | 67 | 115 | 0.0 | 0.0 | 0.00 | 0.18 | 0.00 | 88 | 1007.1 |
| 20260830091316 | 67 | 115 | 0.0 | 0.0 | 0.00 | 0.18 | 0.00 | 88 | 1007.1 |
| 20260830090830 | 67 | 77 | 0.0 | 0.0 | 0.00 | 0.18 | 0.00 | 88 | 1007.0 |
| 20260830090332 | 67 | 121 | 0.0 | 0.0 | 0.00 | 0.18 | 0.00 | 88 | 1007.0 |
| 20260830085814 | 68 | 140 | 0.0 | 0.0 | 0.00 | 0.18 | 0.00 | 88 | 1007.1 |
| 20260830085325 | 68 | 140 | 0.0 | 0.0 | 0.00 | 0.18 | 0.00 | 88 | 1007.1 |
| 20260830084840 | 68 | 140 | 0.0 | 0.0 | 0.00 | 0.18 | 0.00 | 88 | 1007.2 |
| 20260830084321 | 68 | 141 | 0.0 | 0.0 | 0.00 | 0.18 | 0.00 | 88 | 1007.3 |
| 20260830083829 | 68 | 141 | 0.0 | 0.0 | 0.00 | 0.18 | 0.00 | 88 | 1007.3 |
| 20260830083323 | 68 | 141 | 0.0 | 0.0 | 0.00 | 0.18 | 0.00 | 88 | 1007.4 |
| 20260830082828 | 68 | 121 | 0.0 | 0.0 | 0.00 | 0.18 | 0.00 | 88 | 1007.3 |